User: anonymous   Login
Location: Vancouver
(49.2500°N, 123.1330°W)
Time: 02:12:36
(UTC-07:00)
Language:

Transit 2A Rocket - Orbit

View from above orbital plane
View from above orbital plane
View from above satellite
View from above satellite

Ground track
Ground track

The orbit data is extracted from the following two-line orbital elements,

1 00047U 60007C   16203.92004154 -.00000012  00000-0  22369-4 0  9991
2 00047  66.6662   8.7113 0236035 266.8543  90.5533 14.41840910929443
Epoch (UTC): 21 July 2016 22:04:51
Eccentricity: 0.0236035
inclination: 66.6662°
perigee height: 584 km
apogee height: 921 km
right ascension of ascending node: 8.7113°
argument of perigee: 266.8543°
revolutions per day: 14.41840910
mean anomaly at epoch: 90.5533°
orbit number at epoch: 92944

The dashed part of the orbit path shows where the satellite is in the earth's shadow,  

DLR